Regional Weather Roundup
Issued by NWS

Home | Current Version | Previous Version | Text Only | Print | Product List | Glossary On
Versions: 1 2 3 4 5 6 7 8 9 10 11 12 13 14 15 16 17 18 19 20 21 22 23 24 25 26 27 28 29 30 31 32 33 34 35 36 37 38 39 40 41 42 43 44 45 46 47 48 49 50
000
ASUS45 KTFX 021419
RWRMT
MONTANA HOURLY WEATHER ROUNDUP
NATIONAL WEATHER SERVICE GREAT FALLS MT
819 AM MDT THU OCT 2 2014

NOTE: "FAIR" INDICATES FEW OR NO CLOUDS BELOW 12000 FEET WITH NO
SIGNIFICANT WEATHER AND/OR OBSTRUCTIONS TO VISIBILITY.

* THESE STATIONS ARE NOT UNDER NWS QUALITY CONTROL. THEY DO NOT
   REPORT WEATHER SUCH AS PRECIPITATION OR FOG.

MTZ001>007-043-021500-
WEST OF THE DIVIDE
CITY           SKY/WX    TMP DP  RH WIND       PRES   REMARKS
KALISPELL      PTSUNNY   41  34  76 N12       30.08R
MISSOULA       CLOUDY    45  37  74 NW3       30.11R
BUTTE          PTCLDY    34  27  76 N3        30.09R
MULLAN PASS    CLOUDY    34  32  92 NW3       30.13R
* ESSEX        N/A       34  30  85 E4G9       N/A
* LINCOLN      N/A       44  31  60 W4G11      N/A
* LOOKOUT PASS N/A       40  34  79 NW1G7      N/A
* POLSON       N/A       42  34  73 W1         N/A
* RONAN APT    PTSUNNY   48  36  63 SW6        N/A
* SEELEY LAKE  N/A       40  36  86 N2         N/A
* THOMP F APT  PTSUNNY   31  26  82 NE2        N/A
* YAAK HILL    N/A       38  34  86 VRB2       N/A
$$

MTZ008-052>055-021500-
SOUTHWEST MONTANA
CITY           SKY/WX    TMP DP  RH WIND       PRES   REMARKS
BOZEMAN        PTCLDY    32  28  85 CALM      30.07R
DILLON         PTSUNNY   37  27  67 S10       30.11R WCI  30
W YELLOWSTONE  CLOUDY    34  28  79 W3        30.17F
* THREE FORKS  PTCLDY    30  10  43 N/A        N/A
* BOULDER HILL N/A       39  22  51 S6         N/A   WCI  35
* MONIDA PASS  N/A       29  29 100 SE12       N/A   WCI  19
* RAYNOLDS PAS N/A       33  18  54 SE18G26    N/A   WCI  22
* WHITEHALL    N/A       39  30  70 NW7G14     N/A   WCI  34
* WISE RIVER   N/A       39  27  62 W6         N/A   WCI  35
$$

MTZ009>010-012-014-046-048-049-054-021500-
EAST SLOPES AND CENTRAL MONTANA
CITY           SKY/WX    TMP DP  RH WIND       PRES   REMARKS
CUT BANK       LGT SNOW  34  30  85 NW15      30.14R WCI  24
GREAT FALLS    LGT SNOW  34  34 100 NW13G22   30.12R WCI  25
HELENA         PTSUNNY   43  34  71 N15G23    30.07R
MALMSTROM AFB  RAINSNOW  34  34 100 NW14G20   30.13R WCI  24
* CONRAD       CLOUDY    34  34 100 W10        N/A   WCI  26
* DEARBORN     N/A       38  32  79 VRB4       N/A
* EAST GLACIER N/A       28  26  92 NE1G6      N/A
* MONARCH      N/A       31  28  89 NW10       N/A   WCI  22
* PENDROY      N/A       31  30  96 VRB19G27    N/A   WCI  19
* ROGERS PASS  N/A       30  29  96 S2         N/A
* SAINT MARY   N/A       29  28  96 E3G8       N/A
* SWEET GRASS  N/A       31  31 100 VRB26      N/A   WCI  17
* WHITE SULPH  N/A       43  30  60 SW7G14     N/A
$$

MTZ011-013-016-021-035-040-045-047-050-051-021500-
NORTH CENTRAL MONTANA
CITY           SKY/WX    TMP DP  RH WIND       PRES   REMARKS
HAVRE          LGT RAIN  37  36  96 NW13      30.09R WCI  29
LEWISTOWN      LGT RAIN  37  34  89 NW10G24   30.02R WCI  30
* CHINOOK      CLOUDY    37  36  96 W13       30.07R WCI  29
* FORT BENTON  CLOUDY    36  34  92 NW15G20   30.12R WCI  27
* CHESTER      N/A       34  32  92 NW9G15     N/A   WCI  27
* DENTON       N/A       36  34  92 NW18G27    N/A   WCI  26
* JUDITH GAP   N/A       42  29  60 NW16G23    N/A
* LOMA         N/A       35  34  96 NW16       N/A   WCI  25
$$

MTZ017>020-022>027-061-062-021500-
NORTHEAST MONTANA
CITY           SKY/WX    TMP DP  RH WIND       PRES   REMARKS
GLASGOW        CLOUDY    43  36  76 NW17      29.93R
GLENDIVE       PTSUNNY   46  36  68 W10       29.90S
JORDAN         PTSUNNY   43  36  76 NW9       29.95R
SIDNEY         PTCLDY    43  39  86 S8        29.86S
WOLF POINT     CLOUDY    45  39  80 W12       29.89R
* BEAVER HILL  N/A       43  35  73 SW13       N/A
* CIRCLE       N/A       43  40  89 W7G17      N/A
* LINDSAY DVD  N/A       43  31  63 W17G23     N/A
* NAVAJO       N/A       41  39  93 NW24G30    N/A
$$

MTZ028>042-056>058-021500-
SOUTHCENTRAL AND SOUTHEAST MONTANA
CITY           SKY/WX    TMP DP  RH WIND       PRES   REMARKS
BAKER          PTCLDY    43  36  76 SW12      29.92F
BILLINGS       PTSUNNY   45  34  65 SW16      29.99F
LIVINGSTON     CLOUDY    45  28  51 W12       30.02R
MILES CITY     SUNNY     43  32  65 W3        29.94S
* LAUREL APT   PTCLDY    39  30  70 SW7        N/A   WCI  34
* ROUNDUP APT  PTCLDY    41  28  60 S5         N/A
* ALZADA       N/A       38  36  93 NW2        N/A
* HYSHAM       N/A       42  26  53 W6         N/A
* LAME DEER    N/A       41  28  60 W8         N/A
* REED POINT   N/A       38  26  62 N/A        N/A
* ROSCOE HILL  N/A       40  19  43 NE6        N/A   WCI  36
$$

REGIONAL REPORTS...DAKOTAS
CITY           SKY/WX    TMP DP  RH WIND       PRES   REMARKS
WILLISTON      PTSUNNY   45  41  86 SW10      29.82R
DICKINSON      PTCLDY    45  37  74 SW14      29.85F
BEACH          N/A       43  37  79 W12       29.89S
CROSBY         SUNNY     45  43  93 W15G21    29.77S
TIOGA          PTCLDY    45  45 100 SW18      29.82F
WATFORD CITY   SUNNY     41  39  93 SW12      29.82S
BISMARCK       SUNNY     46  43  89 W6        29.89S
GRAND FORKS    CLOUDY    50  46  86 W5        29.81S
FARGO          PTSUNNY   52  46  80 W8        29.84F
BUFFALO SD     PTCLDY    43  37  79 W13       29.88S
RAPID CITY     SUNNY     46  37  71 CALM      30.00S
$$

REGIONAL REPORTS...WYOMING/IDAHO/WASHINGTON
CITY           SKY/WX    TMP DP  RH WIND       PRES   REMARKS
GILLETTE       SUNNY     43  34  71 SW13      30.00S
SHERIDAN       PTCLDY    34  28  79 S3        30.02S
CODY           PTCLDY    48  28  46 W15G24    30.03S
YELLOWSTONE LA CLOUDY    30  27  89 VRB7      30.18S WCI  23
SALMON         PTCLDY    30  28  92 CALM      30.19R
MULLAN PASS    CLOUDY    34  32  92 NW3       30.13S
SAND POINT     PTCLDY    37  37 100 CALM      30.14R
SPOKANE        PTCLDY    43  30  60 SW3       30.16R
$$

REGIONAL REPORTS...ALBERTA
CITY           SKY/WX    TMP DP  RH WIND       PRES   REMARKS
CALGARY        SUNNY     28  21  75 NW12      30.17R WCI  18
LETHBRIDGE     CLOUDY    34  27  76 NW20G29   30.20R WCI  23
MEDICINE HAT   PTSUNNY   36  27  70 NW14G22   30.13R WCI  27
EDMONTON       PTSUNNY   30  25  82 NW12G20   30.15R WCI  20
WATERTON GATE  N/A       30  30 100 CALM       N/A
CARDSTON       N/A       30 N/A N/A NW7        N/A   WCI  23
MILK RIVER     N/A       32  32 100 N17        N/A   WCI  21
$$

REGIONAL REPORTS...SASKATCHEWAN
CITY           SKY/WX    TMP DP  RH WIND       PRES   REMARKS
SWIFT CURRENT  CLOUDY    32  28  85 NW21G31   29.94R WCI  20
MOOSE JAW      CLOUDY    41  39  93 NW15G23   29.85R
REGINA         LGT RAIN  41  39  93 NW16G22   29.81R
VAL MARIE      N/A       37  34  89 NW17G23    N/A   WCI  27
ASSINIBOIA     N/A       41  36  82 NW18G25    N/A
CORONACH       N/A       41  37  86 NW21G28    N/A

$$



USA.gov is the U.S. government's official web portal to all federal, state and local government web resources and services.